DW7087 Weather Reports


time (UTC)temp
C
wind
direction
speed
KPH
gust
KPH
rain 1hr
cm
rain 24hr
cm
rain mn
cm
humidity
%
barometer
mb
20260508014507 6 0 0.0 0.0 0.00 0.00 0.00 88 1015.8
20260508013607 6 0 0.0 0.0 0.00 0.00 0.00 88 1015.8
20260508012707 7 0 0.0 0.0 0.00 0.00 0.00 87 1015.8
20260508011828 7 0 0.0 0.0 0.00 0.00 0.00 87 1016.0
20260508010907 7 0 0.0 0.0 0.00 0.00 0.00 87 1016.2
20260508010028 7 0 0.0 0.0 0.00 0.00 0.00 86 1015.9
20260508005407 7 0 0.0 0.0 0.00 0.00 0.00 86 1016.1
20260508004507 7 90 0.0 1.6 0.00 0.00 0.00 85 1016.1
20260508003628 6 0 0.0 0.0 0.00 0.00 0.00 86 1016.1
20260508002728 6 0 0.0 0.0 0.00 0.00 0.00 85 1016.1
20260508001807 6 0 0.0 0.0 0.00 0.00 0.00 84 1016.2
20260508000907 7 0 0.0 0.0 0.00 0.00 0.00 83 1016.1
20260508000007 7 0 0.0 0.0 0.00 0.00 0.00 82 1016.2
20260507235428 7 0 0.0 0.0 0.00 0.00 0.00 81 1016.3
20260507234507 7 0 0.0 0.0 0.00 0.00 0.00 80 1016.4
20260507233607 7 0 0.0 0.0 0.00 0.00 0.00 79 1016.4
20260507232707 7 0 0.0 0.0 0.00 0.00 0.00 79 1016.5
20260507231807 7 0 0.0 0.0 0.00 0.00 0.00 77 1016.4
20260507230907 8 0 0.0 0.0 0.00 0.00 0.00 77 1016.4
20260507230007 8 0 0.0 0.0 0.00 0.00 0.00 76 1016.4
20260507225407 8 0 0.0 0.0 0.00 0.00 0.00 76 1016.5
20260507224507 8 0 0.0 0.0 0.00 0.00 0.00 76 1016.6
20260507223607 9 0 0.0 0.0 0.00 0.00 0.00 75 1016.5
20260507222707 9 0 0.0 0.0 0.00 0.00 0.00 74 1016.6
20260507221807 9 90 0.0 1.6 0.00 0.00 0.00 74 1016.4
20260507220907 10 90 0.0 1.6 0.00 0.00 0.00 72 1016.4
20260507220007 10 0 0.0 0.0 0.00 0.00 0.00 71 1016.4
20260507215428 10 0 0.0 0.0 0.00 0.00 0.00 70 1016.6
20260507214507 11 0 0.0 0.0 0.00 0.00 0.00 70 1016.7
20260507213607 11 0 0.0 0.0 0.00 0.00 0.00 69 1016.6
20260507212707 11 171 1.6 3.2 0.00 0.00 0.00 69 1016.6
20260507211807 11 164 0.0 3.2 0.00 0.00 0.00 69 1016.5
20260507210907 11 176 3.2 4.8 0.00 0.00 0.00 67 1016.5
20260507210007 11 167 3.2 4.8 0.00 0.00 0.00 66 1016.5
20260507205407 12 174 1.6 3.2 0.00 0.00 0.00 65 1016.3
20260507204507 12 177 0.0 3.2 0.00 0.00 0.00 64 1016.4
20260507203628 12 160 3.2 6.4 0.00 0.00 0.00 63 1016.2
20260507202707 12 152 1.6 4.8 0.00 0.00 0.00 62 1016.1
20260507201807 12 162 3.2 4.8 0.00 0.00 0.00 61 1016.1
20260507200907 13 164 3.2 4.8 0.00 0.00 0.00 61 1016.0
20260507200007 13 187 4.8 8.0 0.00 0.00 0.00 60 1015.9
20260507195407 13 171 4.8 8.0 0.00 0.00 0.00 60 1015.8
20260507194507 13 178 3.2 6.4 0.00 0.00 0.00 60 1015.6
20260507193607 13 174 4.8 11.3 0.00 0.00 0.00 60 1015.4
20260507192707 13 162 6.4 11.3 0.00 0.00 0.00 61 1015.5
20260507191807 13 162 8.0 12.9 0.00 0.00 0.00 60 1015.4
20260507190907 14 187 6.4 9.7 0.00 0.00 0.00 60 1015.2
20260507190028 14 175 8.0 11.3 0.00 0.00 0.00 59 1015.2
20260507185407 14 179 6.4 8.0 0.00 0.00 0.00 59 1015.2
20260507184528 14 193 6.4 12.9 0.00 0.00 0.00 58 1015.2
20260507183607 14 197 4.8 8.0 0.00 0.00 0.00 58 1015.2
20260507182707 15 222 6.4 8.0 0.00 0.00 0.00 57 1015.2
20260507181807 15 200 4.8 6.4 0.00 0.00 0.00 54 1015.1
20260507180907 15 211 6.4 8.0 0.00 0.00 0.00 52 1015.0
20260507180007 15 159 4.8 6.4 0.00 0.00 0.00 51 1014.9
20260507175428 15 159 4.8 8.0 0.00 0.00 0.00 50 1014.8
20260507174507 15 193 4.8 8.0 0.00 0.00 0.00 50 1014.9
20260507173607 15 172 4.8 6.4 0.00 0.00 0.00 51 1014.8
20260507172707 15 146 6.4 9.7 0.00 0.00 0.00 50 1014.9
20260507171807 15 154 8.0 11.3 0.00 0.00 0.00 50 1014.8
20260507170907 15 171 6.4 11.3 0.00 0.00 0.00 50 1014.9
20260507170007 15 179 8.0 12.9 0.00 0.00 0.00 49 1014.9
20260507165407 15 181 11.3 17.7 0.00 0.00 0.00 50 1014.9
20260507164507 16 170 9.7 12.9 0.00 0.00 0.00 51 1014.9
20260507163607 15 141 11.3 16.1 0.00 0.00 0.00 51 1014.9
20260507162707 15 155 11.3 14.5 0.00 0.00 0.00 50 1015.0
20260507161807 16 163 11.3 16.1 0.00 0.00 0.00 51 1015.0
20260507160928 16 169 9.7 16.1 0.00 0.00 0.00 50 1015.0
20260507160028 16 155 11.3 16.1 0.00 0.00 0.00 47 1015.0
20260507155407 16 149 6.4 12.9 0.00 0.00 0.00 39 1015.0
20260507154507 17 220 6.4 9.7 0.00 0.00 0.00 36 1014.9
20260507153607 17 182 6.4 9.7 0.00 0.00 0.00 36 1014.9
20260507152707 17 143 6.4 11.3 0.00 0.00 0.00 36 1014.9
20260507151807 17 136 8.0 11.3 0.00 0.00 0.00 35 1014.9
20260507150907 17 154 6.4 8.0 0.00 0.00 0.00 35 1014.9
20260507150007 17 86 4.8 9.7 0.00 0.00 0.00 35 1014.9
20260507145407 17 96 3.2 9.7 0.00 0.00 0.00 34 1014.9
20260507144507 17 71 6.4 8.0 0.00 0.00 0.00 33 1015.1
20260507143628 17 95 6.4 8.0 0.00 0.00 0.00 33 1015.0
20260507142707 17 77 3.2 8.0 0.00 0.00 0.00 33 1015.1
20260507141807 17 63 6.4 12.9 0.00 0.00 0.00 32 1015.1
20260507140907 17 219 3.2 6.4 0.00 0.00 0.00 35 1015.3
20260507140007 17 125 3.2 6.4 0.00 0.00 0.00 33 1015.2
20260507135407 17 54 3.2 4.8 0.00 0.00 0.00 31 1015.2
20260507134507 17 188 4.8 8.0 0.00 0.00 0.00 33 1015.3
20260507133607 16 24 3.2 6.4 0.00 0.00 0.00 33 1015.3
20260507132728 16 251 3.2 6.4 0.00 0.00 0.00 33 1015.3
20260507131807 16 231 4.8 8.0 0.00 0.00 0.00 34 1015.3
20260507130907 16 283 4.8 6.4 0.00 0.00 0.00 35 1015.4
20260507130007 16 110 3.2 6.4 0.00 0.00 0.00 36 1015.4
20260507125428 16 139 3.2 6.4 0.00 0.00 0.00 35 1015.4
20260507124528 16 214 0.0 3.2 0.00 0.00 0.00 35 1015.4
20260507123607 16 231 1.6 4.8 0.00 0.00 0.00 37 1015.5
20260507122707 16 243 3.2 6.4 0.00 0.00 0.00 37 1015.6
20260507121828 16 185 4.8 8.0 0.00 0.00 0.00 36 1015.5
20260507120907 16 166 3.2 6.4 0.00 0.00 0.00 34 1015.6
20260507120007 16 124 1.6 6.4 0.00 0.00 0.00 36 1015.6
20260507115428 16 240 3.2 4.8 0.00 0.00 0.00 40 1015.6
20260507114507 15 4 4.8 6.4 0.00 0.00 0.00 39 1015.7
20260507113628 15 69 4.8 9.7 0.00 0.00 0.00 39 1015.7
20260507112728 15 72 4.8 11.3 0.00 0.00 0.00 41 1015.7
20260507111807 16 217 1.6 6.4 0.00 0.00 0.00 39 1015.7
20260507110907 16 275 4.8 6.4 0.00 0.00 0.00 36 1015.8
20260507110007 16 42 4.8 8.0 0.00 0.00 0.00 39 1015.8
20260507105428 16 199 4.8 11.3 0.00 0.00 0.00 41 1015.9
20260507104507 16 169 4.8 8.0 0.00 0.00 0.00 42 1016.0
20260507103607 16 348 4.8 6.4 0.00 0.00 0.00 41 1015.9
20260507102707 16 206 6.4 8.0 0.00 0.00 0.00 42 1016.0
20260507101807 16 262 4.8 8.0 0.00 0.00 0.00 47 1016.1
20260507100907 16 263 4.8 9.7 0.00 0.00 0.00 49 1016.1
20260507100007 16 180 3.2 4.8 0.00 0.00 0.00 49 1016.1
20260507095407 16 199 3.2 6.4 0.00 0.00 0.00 49 1016.1
20260507094507 16 111 4.8 6.4 0.00 0.00 0.00 50 1016.1
20260507093628 16 151 6.4 6.4 0.00 0.00 0.00 53 1016.1
20260507092707 15 152 4.8 6.4 0.00 0.00 0.00 55 1016.1
20260507091807 15 258 4.8 8.0 0.00 0.00 0.00 61 1016.1
20260507090907 14 221 3.2 4.8 0.00 0.00 0.00 63 1016.0
20260507090007 14 177 1.6 6.4 0.00 0.00 0.00 62 1016.2
20260507085407 14 95 1.6 6.4 0.00 0.00 0.00 65 1016.2
20260507084507 14 144 3.2 6.4 0.00 0.00 0.00 70 1016.2
20260507083607 13 161 1.6 6.4 0.00 0.00 0.00 74 1016.1
20260507082707 12 177 1.6 6.4 0.00 0.00 0.00 78 1016.2
20260507081807 12 194 0.0 3.2 0.00 0.00 0.00 80 1016.1
20260507080928 11 116 1.6 3.2 0.00 0.00 0.00 85 1016.1
20260507080007 10 61 1.6 3.2 0.00 0.00 0.00 88 1016.2
20260507075407 10 135 0.0 3.2 0.00 0.00 0.00 90 1016.1
20260507074507 10 135 1.6 4.8 0.00 0.00 0.00 91 1016.1
20260507073606 9 148 1.6 4.8 0.00 0.00 0.00 92 1016.1
20260507072706 8 138 0.0 3.2 0.00 0.00 0.00 94 1016.1
20260507071828 8 58 1.6 3.2 0.00 0.00 0.00 94 1016.1
20260507070907 7 45 0.0 3.2 0.00 0.00 0.00 94 1016.1
20260507070010 7 135 0.0 3.2 0.00 0.00 0.00 94 1016.1
20260507065428 7 60 0.0 3.2 0.00 0.00 0.00 94 1016.1
20260507064507 6 45 0.0 3.2 0.00 0.00 0.00 94 1016.0
20260507063607 6 0 0.0 0.0 0.00 0.00 0.00 94 1016.1
20260507062707 6 0 0.0 0.0 0.00 0.00 0.00 94 1016.0
20260507061828 6 0 0.0 0.0 0.00 0.00 0.00 95 1016.1
20260507060907 5 0 0.0 0.0 0.00 0.00 0.00 94 1016.0
20260507060007 5 0 0.0 0.0 0.00 0.00 0.00 94 1016.0
20260507055406 5 0 0.0 0.0 0.00 0.00 0.00 93 1015.9
20260507054506 4 0 0.0 0.0 0.00 0.00 0.00 94 1015.9
20260507053607 4 0 0.0 0.0 0.00 0.00 0.00 93 1015.9
20260507052707 3 0 0.0 0.0 0.00 0.00 0.00 93 1015.8
20260507051806 2 0 0.0 0.0 0.00 0.00 0.00 89 1015.7
20260507050907 2 0 0.0 0.0 0.00 0.00 0.00 88 1015.7
20260507050006 2 0 0.0 0.0 0.00 0.00 0.00 88 1015.6
20260507045406 2 0 0.0 0.0 0.00 0.00 0.00 88 1015.6
20260507044507 2 0 0.0 0.0 0.00 0.00 0.00 88 1015.5
20260507043627 2 0 0.0 0.0 0.00 0.00 0.00 88 1015.5
20260507042728 2 0 0.0 0.0 0.00 0.00 0.00 88 1015.4
20260507041806 2 0 0.0 0.0 0.00 0.00 0.00 88 1015.5
20260507040928 2 0 0.0 0.0 0.00 0.00 0.00 88 1015.6
20260507040028 2 0 0.0 0.0 0.00 0.00 0.00 87 1015.5
20260507035407 2 0 0.0 0.0 0.00 0.00 0.00 87 1015.5
20260507034507 2 0 0.0 0.0 0.00 0.00 0.00 87 1015.5
20260507033607 2 0 0.0 0.0 0.00 0.00 0.00 87 1015.5
20260507032706 3 0 0.0 0.0 0.00 0.00 0.00 91 1015.4
20260507031807 3 0 0.0 0.0 0.00 0.00 0.00 91 1015.6
20260507030906 3 0 0.0 0.0 0.00 0.00 0.00 91 1015.5
20260507030006 3 0 0.0 0.0 0.00 0.00 0.00 91 1015.5
20260507025406 3 0 0.0 0.0 0.00 0.00 0.00 91 1015.5
20260507024507 3 0 0.0 0.0 0.00 0.00 0.00 91 1015.5
20260507023606 3 0 0.0 0.0 0.00 0.00 0.00 91 1015.5
20260507022706 4 0 0.0 0.0 0.00 0.00 0.00 90 1015.5
20260507021806 4 0 0.0 0.0 0.00 0.00 0.00 90 1015.5
20260507020906 4 0 0.0 0.0 0.00 0.00 0.00 90 1015.4
20260507020007 4 180 0.0 1.6 0.00 0.00 0.00 89 1015.4
20260507015407 4 180 0.0 1.6 0.00 0.00 0.00 89 1015.3